TimeCDT,TemperatureF,Dew PointF,Humidity,Sea Level PressureIn,VisibilityMPH,Wind Direction,Wind SpeedMPH,Gust SpeedMPH,PrecipitationIn,Events,Conditions,WindDirDegrees,DateUTC
12:58 AM,35.6,33.8,93,30.35,10.0,Calm,Calm,-,N/A,,Clear,0,2013-09-16 05:58:00
1:58 AM,36.3,34.7,94,30.35,10.0,Calm,Calm,-,N/A,,Clear,0,2013-09-16 06:58:00
2:58 AM,34.2,33.3,97,30.35,10.0,Calm,Calm,-,N/A,,Clear,0,2013-09-16 07:58:00
3:58 AM,33.4,32.9,98,30.35,10.0,Calm,Calm,-,N/A,,Clear,0,2013-09-16 08:58:00
4:18 AM,32.0,32.0,100,30.33,8.0,Calm,Calm,-,N/A,,Clear,0,2013-09-16 09:18:00
4:28 AM,32.0,32.0,100,30.33,4.0,Calm,Calm,-,N/A,,Clear,0,2013-09-16 09:28:00
4:43 AM,32.0,32.0,100,30.33,6.0,Calm,Calm,-,N/A,,Clear,0,2013-09-16 09:43:00
4:48 AM,32.0,32.0,100,30.32,10.0,South,1.2,-,N/A,,Clear,180,2013-09-16 09:48:00
4:58 AM,34.5,34.2,99,30.35,10.0,SW,1.2,-,N/A,,Clear,220,2013-09-16 09:58:00
5:58 AM,32.4,32.0,99,30.35,10.0,SW,2.3,-,N/A,,Clear,220,2013-09-16 10:58:00
6:58 AM,34.9,34.7,99,30.35,10.0,SE,3.5,-,N/A,,Clear,130,2013-09-16 11:58:00
7:58 AM,36.9,36.5,99,30.36,10.0,SSE,4.6,-,N/A,,Clear,150,2013-09-16 12:58:00
8:58 AM,46.9,45.0,93,30.35,10.0,South,10.4,-,N/A,,Clear,170,2013-09-16 13:58:00
9:58 AM,55.0,46.8,74,30.35,10.0,South,13.8,-,N/A,,Clear,180,2013-09-16 14:58:00
10:58 AM,59.7,48.4,66,30.33,10.0,South,15.0,-,N/A,,Clear,180,2013-09-16 15:58:00
11:58 AM,62.6,48.9,61,30.32,10.0,South,16.1,-,N/A,,Clear,190,2013-09-16 16:58:00
12:58 PM,65.7,47.7,52,30.30,10.0,South,13.8,-,N/A,,Clear,170,2013-09-16 17:58:00
1:58 PM,67.3,47.5,49,30.27,10.0,South,13.8,19.6,N/A,,Clear,180,2013-09-16 18:58:00
2:58 PM,69.1,48.0,47,30.23,10.0,South,16.1,24.2,N/A,,Clear,180,2013-09-16 19:58:00
3:37 PM,69.8,48.2,46,30.18,10.0,SSE,17.3,24.2,N/A,,Clear,150,2013-09-16 20:37:00
3:58 PM,69.6,47.8,46,30.20,10.0,South,17.3,23.0,N/A,,Clear,170,2013-09-16 20:58:00
4:58 PM,69.8,47.8,46,30.17,10.0,South,15.0,26.5,N/A,,Clear,190,2013-09-16 21:58:00
5:58 PM,68.7,48.6,49,30.15,10.0,South,15.0,25.3,N/A,,Clear,170,2013-09-16 22:58:00
6:58 PM,66.6,48.6,52,30.14,10.0,SSE,13.8,-,N/A,,Clear,150,2013-09-16 23:58:00
7:58 PM,62.4,46.9,57,30.12,10.0,SSE,13.8,-,N/A,,Clear,150,2013-09-17 00:58:00
8:58 PM,59.0,45.7,61,30.11,10.0,SSE,15.0,-,N/A,,Clear,150,2013-09-17 01:58:00
9:58 PM,56.3,44.1,64,30.09,10.0,SSE,12.7,-,N/A,,Clear,160,2013-09-17 02:58:00
10:58 PM,55.6,40.6,57,30.09,10.0,SSE,13.8,-,N/A,,Clear,160,2013-09-17 03:58:00
11:58 PM,54.7,41.4,61,30.08,10.0,SSE,16.1,-,N/A,,Clear,160,2013-09-17 04:58:00